Flag for Canada Weather past 2 weeks in Moose Jaw, Saskatchewan, Canada

Now
28 °F

Clear.


Feels Like: 20 °F
Forecast: 28 / 38 °F
Wind: 9 mph from Southeast

Location: Regina Weather Station

Current Time: Jan 27, 2015 at 4:59:36 AM

Latest Report: Jan 27, 2015 at 4:00 AM


Visibility: 15 mi

Pressure: 29.87 "Hg

Humidity: 93%

Dew point: 27 °F

Location of Moose JawLocation

Historic Weather in Moose Jaw — Graph

°F

Moose Jaw temperature yesterday

Maximum temperature yesterday: 39 °F (at 3:00 PM)
Minimum temperature yesterday: 30 °F (at 7:00 PM)
Average temperature yesterday: 35 °F

Past Weeks' High & Low Weather Summary

 TemperatureHumidityPressure
High39 °F (Jan 22, 8:00 PM)100% (Jan 15, 6:00 PM)30.74 "Hg (Jan 15, 6:00 PM)
Low-17 °F (Jan 12, 6:55 AM)65% (Jan 17, 1:00 PM)29.43 "Hg (Jan 16, 6:00 PM)
Average24 °F88%30.00 "Hg
* Reported Jan 12 4:00 AM — Jan 27 4:00 AM, Moose Jaw, Weather by CustomWeather, © 2014

Note: Actual official high and low records may vary slightly from our data, if they occured in-between our weather recording intervals... More about our weather records

Advertising

Moose Jaw weather history for previous 24 hours

 ConditionsComfort  
Time TempWeatherWind HumidityBarometerVisibility
4:00 AM
Jan 27
28 °FClear.9 mph93%29.87 "Hg15 mi
3:00 AM28 °FPassing clouds.7 mph93%29.89 "Hg15 mi
2:00 AM30 °FPassing clouds.8 mph93%29.88 "Hg15 mi
1:00 AM30 °FPassing clouds.8 mph93%29.90 "Hg15 mi
12:00 AM28 °FPassing clouds.9 mph100%29.91 "Hg15 mi
11:00 PM
Jan 26
30 °FPassing clouds.10 mph93%29.91 "Hg15 mi
10:00 PM32 °FPassing clouds.8 mph93%29.93 "Hg15 mi
9:00 PM32 °FPassing clouds.8 mph93%29.93 "Hg15 mi
8:00 PM32 °FClear.9 mph93%29.93 "Hg15 mi
7:00 PM30 °FPassing clouds.8 mph100%29.95 "Hg15 mi
6:00 PM34 °FPassing clouds.8 mph87%29.96 "Hg15 mi
5:00 PM36 °FPartly sunny.5 mph87%29.96 "Hg15 mi
4:00 PM39 °FPartly sunny.3 mph75%29.95 "Hg15 mi
3:00 PM39 °FPartly sunny.No wind75%29.96 "Hg15 mi
2:00 PM37 °FPartly sunny.3 mph81%29.98 "Hg15 mi
1:00 PM36 °FMostly cloudy.3 mph87%29.99 "Hg15 mi
12:00 PM36 °FPartly sunny.8 mph87%30.00 "Hg15 mi
11:00 AM36 °FPartly sunny.No wind81%29.99 "Hg15 mi
10:00 AM34 °FPartly sunny.5 mph87%29.98 "Hg15 mi
9:00 AM34 °FPartly sunny.10 mph87%29.97 "Hg15 mi
8:00 AM34 °FPassing clouds.10 mph87%29.96 "Hg15 mi
7:00 AM36 °FPassing clouds.12 mph81%29.95 "Hg15 mi
6:00 AM36 °FPassing clouds.13 mph87%29.95 "Hg15 mi
5:00 AM36 °FPassing clouds.13 mph87%29.93 "Hg15 mi
4:00 AM37 °FPassing clouds.16 mph75%29.93 "Hg15 mi
Weather by CustomWeather, © 2014

See weather overviewHow to use our weather pages